Location: Altenhof
(50.2418°N, 10.8789°E)
Time: 06:21:11
(UTC+00:00)

Cosmos 1633 - Pass Details

Date: 18 February 2020
Orbit: 464 x 482 km, 82.5° (Epoch: 28 March)

Event Time Altitude Azimuth Distance (km) Brightness Sun altitude
Rises 05:00:01 0° 346° (NNW) 2,559 6.1 -13.9°
Reaches altitude 10° 05:02:09 10° 342° (NNW) 1,675 5.1 -13.6°
Maximum altitude 05:05:44 55° 264° (W) 590 2.6 -13.0°
Drops below altitude 10° 05:09:17 10° 186° (S) 1,660 5.2 -12.4°
Sets 05:11:23 0° 182° (S) 2,533 6.2 -12.1°
